TimePDT,TemperatureF,Dew PointF,Humidity,Sea Level PressureIn,VisibilityMPH,Wind Direction,Wind SpeedMPH,Gust SpeedMPH,PrecipitationIn,Events,Conditions,WindDirDegrees,DateUTC
12:56 AM,95.0,61.0,32,29.78,10.0,WSW,8.1,-,N/A,,Clear,240,2013-07-26 07:56:00
1:56 AM,93.0,61.0,34,29.79,10.0,WSW,5.8,-,N/A,,Clear,250,2013-07-26 08:56:00
2:56 AM,93.0,63.0,37,29.80,10.0,West,5.8,-,N/A,,Clear,270,2013-07-26 09:56:00
3:56 AM,93.0,63.0,37,29.81,10.0,WSW,6.9,-,N/A,,Clear,240,2013-07-26 10:56:00
4:56 AM,91.9,63.0,38,29.81,10.0,WSW,4.6,-,N/A,,Clear,250,2013-07-26 11:56:00
5:56 AM,91.9,63.0,38,29.84,10.0,SW,4.6,-,N/A,,Clear,220,2013-07-26 12:56:00
6:56 AM,93.0,63.0,37,29.85,10.0,Calm,Calm,-,N/A,,Clear,0,2013-07-26 13:56:00
7:56 AM,93.9,63.0,36,29.87,10.0,Calm,Calm,-,N/A,,Clear,0,2013-07-26 14:56:00
8:56 AM,99.0,62.1,30,29.87,10.0,SSW,12.7,18.4,N/A,,Clear,210,2013-07-26 15:56:00
9:56 AM,99.0,62.1,30,29.87,10.0,SSW,15.0,21.9,N/A,,Clear,210,2013-07-26 16:56:00
10:56 AM,100.9,62.1,28,29.88,10.0,South,16.1,21.9,N/A,,Clear,190,2013-07-26 17:56:00
11:56 AM,102.0,61.0,26,29.89,10.0,SSW,18.4,24.2,N/A,,Clear,200,2013-07-26 18:56:00
12:56 PM,100.0,64.0,31,29.89,10.0,South,16.1,24.2,N/A,,Partly Cloudy,180,2013-07-26 19:56:00
1:56 PM,93.9,64.9,38,29.88,10.0,SW,16.1,20.7,N/A,,Clear,230,2013-07-26 20:56:00
2:56 PM,95.0,68.0,41,29.86,10.0,WSW,11.5,-,N/A,,Clear,240,2013-07-26 21:56:00
3:56 PM,96.1,64.9,36,29.84,10.0,SSW,10.4,-,N/A,,Clear,210,2013-07-26 22:56:00
4:56 PM,97.0,64.9,35,29.82,10.0,East,5.8,-,N/A,,Clear,90,2013-07-26 23:56:00
5:56 PM,99.0,61.0,28,29.80,10.0,ESE,6.9,-,N/A,,Clear,110,2013-07-27 00:56:00
6:56 PM,98.1,61.0,29,29.79,10.0,East,6.9,-,N/A,,Clear,100,2013-07-27 01:56:00
7:56 PM,97.0,61.0,30,29.79,10.0,ESE,4.6,-,N/A,,Clear,110,2013-07-27 02:56:00
8:56 PM,96.1,60.1,30,29.80,10.0,Calm,Calm,-,N/A,,Clear,0,2013-07-27 03:56:00
9:56 PM,95.0,60.1,31,29.81,10.0,WNW,4.6,-,N/A,,Clear,290,2013-07-27 04:56:00
10:56 PM,93.9,60.1,32,29.81,10.0,West,6.9,-,N/A,,Mostly Cloudy,260,2013-07-27 05:56:00
11:56 PM,95.0,62.1,33,29.81,10.0,WSW,8.1,-,N/A,,Overcast,250,2013-07-27 06:56:00